Regional Weather Roundup
Issued by NWS

Home | Current Version | Previous Version | Graphics & Text | Print | Product List | Glossary On
Versions: 1 2 3 4 5 6 7 8 9 10 11 12 13 14 15 16 17 18 19 20 21 22 23 24 25 26 27 28 29 30 31 32 33 34 35 36 37 38 39 40 41 42 43 44 45 46 47 48 49 50
000
ASUS43 KOAX 060502
RWRNE

WEATHER ROUNDUP FOR NEBRASKA
NATIONAL WEATHER SERVICE OMAHA NE
1200 AM CDT WED MAY 06 2015

NOTES: SATELLITE DATA IS BEING USED TO AUGMENT CLOUD COVER ABOVE
       12000 FEET.
       "FAIR" INDICATES FEW OR NO CLOUDS BELOW 12,000 FEET WITH NO
       SIGNIFICANT WEATHER AND/OR OBSTRUCTIONS TO VISIBILITY.

  * THESE STATIONS DO NOT REPORT WEATHER SUCH AS RAIN...SNOW OR FOG.

NEZ001>004-019>022-054>056-060600-
NEBRASKA PANHANDLE

CITY           SKY/WX    TMP DP  RH WIND       PRES   REMARKS
SCOTTSBLUFF    LGT RAIN  53  32  44 SE16G25   29.80F
ALLIANCE       CLOUDY    53  51  93 MISG      29.81F
CHADRON        CLOUDY    55  49  80 E3        29.81F
KIMBALL        LGT RAIN  51  51  99 E16       29.76F
SIDNEY         LGT RAIN  52  51  97 E17       29.78F FOG
$$

NEZ057>060-069>072-079>082-060600-
SOUTHWEST NEBRASKA

CITY           SKY/WX    TMP DP  RH WIND       PRES   REMARKS
NORTH PLATTE   LGT RAIN  55  53  93 E17       29.82F FOG
IMPERIAL       CLOUDY    56  54  93 SE14      29.77F
LEXINGTON      CLOUDY    58  56  95 SE15G23   29.85F FOG
MCCOOK         CLOUDY    60  58  92 SE14      29.79F
$$

NEZ005>010-023>029-035>040-094-060600-
NORTH CENTRAL NEBRASKA

CITY           SKY/WX    TMP DP  RH WIND       PRES   REMARKS
VALENTINE      CLOUDY    57  55  93 E8        29.89F
AINSWORTH      RAIN      57  53  86 SE6       29.89F
BROKEN BOW     CLOUDY    57  55  93 SE17G24   29.87F
ORD            LGT RAIN  59  54  83 SE8       29.90F
$$

NEZ041-046>049-061>064-073>077-083>087-060600-
SOUTH CENTRAL NEBRASKA

CITY           SKY/WX    TMP DP  RH WIND       PRES   REMARKS
GRAND ISLAND   CLOUDY    60  55  83 SE8       29.93F
AURORA         CLOUDY    61  58  91 SE10      29.93F
HASTINGS       CLOUDY    60  56  86 SE10      29.91F
KEARNEY *      CLOUDY    57  55  94 SE17      29.89F
$$

NEZ011>018-030>034-042>045-060600-
NORTHEAST NEBRASKA

CITY           SKY/WX    TMP DP  RH WIND       PRES   REMARKS
NORFOLK        LGT RAIN  64  60  87 S14       29.95R FOG
COLUMBUS *     CLOUDY    63  55  77 S9        29.97S
TEKAMAH        CLOUDY    68  59  73 SE14      29.96F
$$

NEZ050>053-065>068-078-088>093-060600-
SOUTHEAST NEBRASKA

CITY           SKY/WX    TMP DP  RH WIND       PRES   REMARKS
LINCOLN        CLOUDY    66  60  81 S16       29.97R
OMAHA EPPLEY   CLOUDY    69  58  67 SE17      29.98S
FALLS CITY     LGT RAIN  65  61  87 SE9       29.99F
PLATTSMOUTH    CLOUDY    65  56  73 SE14G21   29.99S
$$

NEZ044-045-051>053-067-060600-
OMAHA AREA

CITY           SKY/WX    TMP DP  RH WIND       PRES   REMARKS
OMAHA EPPLEY   CLOUDY    69  58  67 SE17      29.98S
OFFUTT AFB     CLOUDY    67  57  70 SE13      29.97S
PLATTSMOUTH    CLOUDY    65  56  73 SE14G21   29.99S
$$



USA.gov is the U.S. government's official web portal to all federal, state and local government web resources and services.